Powrót do katalogu

STARLINK-36382

AktywnyŁącznośćSSO
NORAD 67807·PAYLOAD·🇺🇸 United States

Wystrzelony Feb 15, 2026 z Vandenberg Space Force Base

Loading…

Następne Przeloty (najbliższe 24 godziny)

TLE

ŚwieżeSource: CelesTrak SupGP

Epoka: Sep 14, 2026, 22:34 UTC

1 67807C 26032L   26257.94076389  .00075636  00000+0  23481-2 0  2572
2 67807  97.2855  84.4072 0001630  93.1969 213.5553 15.33398601    12

Śledź STARLINK-36382 w czasie rzeczywistym z AllMySat

Download on the App Store